Simultaneous Nadir Overpasses (SNOs) Predictions

Prediction of SNOs between GOES-16 and AQUA Satellite Orbit:

Table of predicted SNOs for the next 14.0 days since TLE Epoch: 7/8/2023
Index Date Time (GOES-16) GOES-16 Lat,Lon AQUA Lat,Lon Distance(km) Time Diff (sec)
1 07/09/2023 18:36:39 0.01, -75.21 0.87, -71.29 446.25 80
2 07/10/2023 06:57:22 -0.01, -75.21 0.24, -76.30 124.32 80
3 07/12/2023 06:40:29 -0.00, -75.23 -0.50, -72.83 272.28 80
4 07/12/2023 19:01:22 0.00, -75.24 -0.58, -77.89 302.29 80
5 07/14/2023 18:49:49 -0.01, -75.26 0.20, -74.43 95.18 80
6 07/15/2023 07:10:32 0.01, -75.27 0.90, -79.44 474.88 80
7 07/16/2023 18:35:34 -0.01, -75.29 0.89, -70.94 493.23 80
8 07/17/2023 06:56:18 0.02, -75.29 0.14, -75.97 76.65 80
9 07/19/2023 06:39:23 0.02, -75.33 -0.58, -72.49 322.49 80
10 07/19/2023 19:00:15 -0.02, -75.34 -0.52, -77.54 251.44 80
11 07/21/2023 18:48:40 -0.02, -75.38 0.24, -74.07 148.99 80
